Tracking 35331 objects as of 15-Sep-2026
HD Live streaming from Space Station
objects crossing your sky now

STARLINK-11737

Track STARLINK-11737 now!
10-day predictions
STARLINK-11737 is classified as:


NORAD ID: 64066
Int'l Code: 2025-107C
Launch date: May 21, 2025
Source: United States (US)
Launch site: AIR FORCE EASTERN TEST RANGE (AFETR)
Your satellite tracking list
Your tracking list is empty




NASA's NSSDC Master Catalog

Two Line Element Set (TLE):
1 64066U 25107C   26256.80539635  .00210713  00000-0  16019-2 0  9990
2 64066  43.0001  44.3450 0001459 267.8274  92.2427 15.70877090 76886
Source of the keplerian elements: AFSPC